User: anonymous   Login
Location: Castillon
(43.0896°N, 0.2156°E)
Time: 18:02:00
(UTC+00:00)
Language:

Cosmos 2228 - Orbit

View from above orbital plane
View from above orbital plane
View from above satellite
View from above satellite

Ground track
Ground track

The orbit data is extracted from the following two-line orbital elements,

1 22286U 92094A   21267.70594197  .00000352  00000-0  35256-4 0  9999
2 22286  82.5225 341.7256 0020488 343.0241  17.0289 14.88328678533499
Epoch (UTC): 24 September 2021 16:56:33
Eccentricity: 0.0020488
inclination: 82.5225°
perigee height: 589 km
apogee height: 617 km
right ascension of ascending node: 341.7256°
argument of perigee: 343.0241°
revolutions per day: 14.88328678
mean anomaly at epoch: 17.0289°
orbit number at epoch: 53349

The dashed part of the orbit path shows where the satellite is in the earth's shadow,  

DLR